Location: Moscow
(55.7500°N, 37.5830°E)
Time: 19:59:18
(UTC+03:00)

Transit 2A Rocket - Pass Details

Date: 08 December 2021
Orbit: 584 x 917 km, 66.7° (Epoch: 23 January)

Event Time Altitude Azimuth Distance (km) Brightness Sun altitude
Rises 16:54:45 0° 313° (NW) 3,563 8.7 -7.3°
Reaches altitude 10° 16:58:01 10° 296° (WNW) 2,598 8.2 -7.7°
Maximum altitude 17:02:05 19° 254° (WSW) 1,987 8.4 -8.2°
Drops below altitude 10° 17:06:01 10° 211° (SSW) 2,494 8.7 -8.7°
Sets 17:09:05 0° 194° (SSW) 3,371 9.0 -9.1°
